Location: Rounton
(54.4000°N, 1.3500°W)
Time: 13:14:34
(UTC+00:00)

Vanguard 2 - Pass Details

Date: 01 December 2021
Orbit: 553 x 2936 km, 32.9° (Epoch: 23 January)

Event Time Altitude Azimuth Distance (km) Brightness Sun altitude
Rises 19:29:33 0° 248° (WSW) 4,612 12.4 -31.4°
Reaches altitude 10° 19:36:22 10° 215° (SW) 4,295 11.6 -32.4°
Maximum altitude 19:38:39 11° 203° (SSW) 4,435 11.5 -32.7°
Drops below altitude 10° 19:41:06 10° 192° (SSW) 4,700 11.5 -33.1°
Sets 19:50:38 0° 162° (SSE) 6,346 12.0 -34.4°
